OBJECT J, 57174

Orbit data source: Space-Track

You're viewing an Uncataloged Satellite

Recently launched and/or uncataloged satellites may have evolving metadata. Metadata may include but not limited to: Owner, Maufacturer, Bus, Motor, and Mission.

OBJECT J, 57174 is a satellite in SSO that was launched on Tue, 27 Jun 2023 UTC via a SOYUZ-2-1B launch vehicle from the Vostochny Cosmodrome (VOSTO). Unknown objects in Earth's orbit typically refer to objects detected orbiting the Earth but have not yet been identified or cataloged. These objects could be anything from previously untracked satellites, spent rocket stages, debris from satellite collisions, or even natural meteoroids temporarily captured by Earth's gravity.

Loading next visibility...
Identifier
57174, 2023-091J
Orbit
SSO
Country
Flag of TBDTBD
Related business
None
Manufacturer
Unknown
Mission
Operational Amateur Technology
Bus & Motor
Unknown
Mass
Unknown
Launch date (UTC)
2023-06-27 (2 years ago)
Launch vehicle
SOYUZ-2-1B
Launch site
Vostochny Cosmodrome (VOSTO)
Object type
Unknown
Shape & HBR
Box, 0.1 m
Radar Cross Section
0.080 m², Medium (>0.1 m² and < 1m²)

Expand to show TLE details & history
Last TLE update: 8 hours ago

TLE from 8 hours ago
0 OBJECT J
1 57174U 23091J   25304.62038830  .00006406  00000-0  37858-3 0  9993
2 57174  97.5420 355.8365 0013061 210.6444 149.4025 15.11761011129078
Epoch: 2025-10-31T14:53Z
TLE epoch observation values (Epoch: 2025-10-31T14:53:21.549Z)
Latitude
0.00003°
Longitude
92.3345°
Altitude
541.677 km
Speed
7.587 km/s
True Right ascension
23h 43m 20s
True Declination
0° 00' 00"
Sunlit
Object was in full shadow at epoch
Visualization orbit readout
Latitude
Unknown
Longitude
Unknown
Altitude
Unknown
Speed
Unknown
Apparent Right ascension
Unknown
Apparent Declination
Unknown
Sunlit
N/A
Visualization observer readout
Local Sidereal Time
18:16:03
Azimuth
Unknown
Elevation
Unknown
Doppler factor
Unknown
Orbital elements
Apogee altitude
536.832 km
Perigee altitude
518.792 km
Semi-major axis
6,905.949 km
Eccentricity
0.00131
Inclination
97.542°
RAAN
355.8365°
Arg. of periapsis
210.6444°
True anomaly
149.47857°
Mean anomaly
149.4025°
Eccentric anomaly
149.44055°
Mean motion
3.78188 °/min
Orbital period
95.19 mins
BSTAR
0.00037858
Loading maneuver chart data...
Computing Atmospheric mass density...
Loading historical data...
Loading historical data...
Loading historical data...
Loading historical data...
Loading historical data...
Loading historical data...
Loading historical data...

Documentation

Showing up to 5 results
|